Showing default

GALAXY 11, 26038

Orbit data source: Space-Track

GALAXY 11, 26038 is a payload satellite owned by Panamsat (US) in GEO that was launched on Wed, 22 Dec 1999 UTC via an ARIANE 44L launch vehicle from the French Guiana (FRGUI). Payloads include a variety of satellites, spacecraft, and rockets equipped with specific instruments for various scientific and technological missions. These include communications satellites like Starlink; space stations such as the ISS; scientific satellites like the Hubble; Earth observation satellites from companies like Planet Labs, Umbra, and HawkEye 360; GPS; miniature CubeSats for education and research; and military/defense satellites.

Loading next visibility...
GALAXY 11 details
Identifier
26038, 1999-071A
Orbit
GEO
Last TLE update1 day ago
Origin
Flag of USPanamsat (US)
ManufacturerHughes
MissionOperational Commercial Communications
Bus & MotorHS-702, R-4D-11-300
Mass4,484 kg wet, ~4,400 kg dry
Launch date (UTC)
1999-12-22 (25 years ago)
Launch vehicle
ARIANE 44L
Launch site
French Guiana (FRGUI)
Object type
Payload
Rocket body
Debris
Shape & HBRBox + 2 Pan, 34 m
Radar Cross Section53.041 m², Large (>1 m²)

Expand to show TLE details & history

TLE from 1 day ago
0 GALAXY 11
1 26038U 99071A   25024.65699288  .00000086  00000-0  00000-0 0  9995
2 26038   5.4469  76.7000 0006706 282.7842 238.0490  0.99029316 91972
Epoch: 2025-01-24T15:46Z
Definitive object data (Epoch: 2025-01-24T15:46:04.184Z)
Latitude1.79615°
Longitude-123.17018°
Altitude36,152.792 km
Speed3.061 km/s
True Right ascension15h 50m 15s
True Declination1° 47' 40"
Sunlit
Object was in daylight at TLE epoch
Visualization TLE readout
Latitude-1.86437°
Longitude-84.22189°
Altitude36,134.572 km
Speed3.062 km/s
Apparent Right ascension18h 14m 24s
Apparent Declination-8° 09' 27"
Sunlit
Object is in daylight
Visualization observer readout
Local Sidereal Time19:58:59
Azimuth212.718° SW
Elevation36.191°
Doppler factor1
Orbital elements
Apogee altitude36,168.101 km
Perigee altitude36,111.076 km
Semi-major axis42,517.726 km
Eccentricity0.0006706
Inclination5.4469°
RAAN76.7°
Arg. of periapsis282.7842°
True anomaly237.98383°
Mean anomaly238.049°
Eccentric anomaly238.01641°
Mean motion0.24756 °/min
BSTARUnknown
Orbital period1454.17 mins
Loading historical data...
26038 neighbors
Authenticating...
Loading maneuver chart data...
Loading historical data...
Loading historical data...
Loading historical data...
Loading historical data...
Loading historical data...
Loading historical data...
Loading historical data...
Other satellites on launch #71 in the year 1999 (1999-12-22 UTC)

GALAXY 11 Visibility forecast

Observer location: undefined°, undefined

Span
Click to sort rows by Start time (UTC) header in descending order
Start Az.
Max El. time (UTC)
Max El. Az.
Max El.
End time (UTC)
End Az.
1440 mins2025-01-25 18:38:10.686Z212.707° SW2025-01-26 11:19:10.686Z221.296° SW33.726°2025-01-26 18:38:10.686Z218.291° SW
|